Change the Weather History Date:

Thursday, May 23, 2013

  Actual Average Record
Temperature  
Mean Temperature 55 °F -  
Max Temperature 64 °F 73 °F 93 °F (1964)
Min Temperature 46 °F 50 °F 26 °F (1963)
Degree Days  
Heating Degree Days 10    
Growing Degree Days 5 (Base 50)    
Moisture  
Dew Point 39 °F    
Average Humidity 57    
Maximum Humidity 87    
Minimum Humidity 34    
Precipitation  
Precipitation 0.00 in - - ()
Sea Level Pressure  
Sea Level Pressure 30.21 in    
Wind  
Wind Speed 9 mph (NE)    
Max Wind Speed 16 mph    
Max Gust Speed 22 mph    
Visibility 10 miles    
Events      
Averages and records for this station are not official NWS values.
T = Trace of Precipitation, MM = Missing Value Source: NWS Daily Summary

Daily Weather History Graph

Daily Weather History Graph

Search for Another Location

Airport or City:

Trip Planner

Search our weather history database for the weather conditions in past years. The results will help you decide how hot, cold, wet, or windy it might be!

Date:

Astronomy

May. 23, 2013 Rise Set
Actual Time 5:42 AM CDT 8:47 PM CDT
Civil Twilight 5:08 AM CDT 9:21 PM CDT
Nautical Twilight 4:23 AM CDT 10:06 PM CDT
Astronomical Twilight 3:30 AM CDT 11:00 PM CDT
Moon 7:17 PM CDT (5/23) 4:32 AM CDT (5/23)
Length of Visible Light 16h 13m
Length of Day
15h 04m
Waxing Gibbous, 97% of the Moon is Illuminated
May 23
Waxing Gibbous
May 24
Full
May 31
Last Quarter
Jun 8
New
Jun 16
First Quarter

Hourly Weather History & Observations

Time (CDT) Temp. Windchill Dew Point Humidity Pressure Visibility Wind Dir Wind Speed Gust Speed Precip Events Conditions
12:12 AM 53.6 °F - 44.6 °F 72% 29.99 in 10.0 mi NNE 10.4 mph - N/A   Overcast
12:33 AM 51.8 °F - 44.6 °F 76% 30.00 in 10.0 mi NNE 9.2 mph - N/A   Scattered Clouds
12:53 AM 51.8 °F - 44.6 °F 76% 30.01 in 10.0 mi NNE 6.9 mph - N/A   Mostly Cloudy
1:12 AM 53.6 °F - 44.6 °F 72% 30.01 in 10.0 mi NNE 6.9 mph - N/A   Overcast
1:33 AM 51.8 °F - 44.6 °F 76% 30.02 in 10.0 mi North 6.9 mph - N/A   Scattered Clouds
1:53 AM 51.8 °F - 42.8 °F 71% 30.04 in 10.0 mi North 4.6 mph - N/A   Clear
2:13 AM 48.2 °F - 42.8 °F 82% 30.04 in 10.0 mi North 5.8 mph - N/A   Clear
2:33 AM 48.2 °F - 42.8 °F 82% 30.05 in 10.0 mi North 8.1 mph - N/A   Clear
2:53 AM 48.2 °F - 42.8 °F 82% 30.05 in 10.0 mi North 8.1 mph - N/A   Clear
3:13 AM 48.2 °F - 42.8 °F 82% 30.07 in 10.0 mi North 8.1 mph - N/A   Clear
3:33 AM 48.2 °F - 42.8 °F 82% 30.07 in 10.0 mi North 9.2 mph - N/A   Clear
3:53 AM 48.2 °F - 42.8 °F 82% 30.08 in 10.0 mi NNE 11.5 mph 17.3 mph N/A   Clear
4:13 AM 46.4 °F 41.5 °F 42.8 °F 87% 30.09 in 10.0 mi NNE 10.4 mph - N/A   Clear
4:33 AM 46.4 °F 41.9 °F 42.8 °F 87% 30.10 in 10.0 mi NNE 9.2 mph - N/A   Clear
4:52 AM 46.4 °F 41.9 °F 42.8 °F 87% 30.12 in 10.0 mi NNE 9.2 mph - N/A   Clear
5:13 AM 46.4 °F 43.5 °F 42.8 °F 87% 30.13 in 10.0 mi North 5.8 mph - N/A   Clear
5:33 AM 46.4 °F 42.9 °F 42.8 °F 87% 30.14 in 10.0 mi North 6.9 mph - N/A   Clear
5:52 AM 46.4 °F 41.9 °F 41.0 °F 81% 30.15 in 10.0 mi NNE 9.2 mph - N/A   Clear
6:13 AM 46.4 °F 42.9 °F 41.0 °F 81% 30.16 in 10.0 mi NNE 6.9 mph - N/A   Clear
6:33 AM 46.4 °F 42.4 °F 41.0 °F 81% 30.17 in 10.0 mi NNE 8.1 mph - N/A   Clear
6:52 AM 46.4 °F 41.1 °F 39.2 °F 76% 30.17 in 10.0 mi NE 11.5 mph 17.3 mph N/A   Clear
7:13 AM 46.4 °F 40.7 °F 39.2 °F 76% 30.18 in 10.0 mi NE 12.7 mph 17.3 mph N/A   Clear
7:33 AM 48.2 °F - 39.2 °F 71% 30.19 in 10.0 mi NE 12.7 mph - N/A   Clear
7:52 AM 48.2 °F - 39.2 °F 71% 30.20 in 10.0 mi NE 11.5 mph - N/A   Clear
8:13 AM 48.2 °F - 39.2 °F 71% 30.21 in 10.0 mi NE 11.5 mph - N/A   Clear
8:33 AM 50.0 °F - 37.4 °F 62% 30.22 in 10.0 mi NE 12.7 mph 18.4 mph N/A   Clear
8:52 AM 50.0 °F - 37.4 °F 62% 30.23 in 10.0 mi NE 13.8 mph 19.6 mph N/A   Clear
9:13 AM 50.0 °F - 37.4 °F 62% 30.23 in 10.0 mi NNE 13.8 mph 18.4 mph N/A   Clear
9:33 AM 51.8 °F - 37.4 °F 58% 30.24 in 10.0 mi NE 15.0 mph 20.7 mph N/A   Clear
9:52 AM 51.8 °F - 37.4 °F 58% 30.24 in 10.0 mi NNE 11.5 mph 20.7 mph N/A   Clear
10:13 AM 51.8 °F - 37.4 °F 58% 30.25 in 10.0 mi NNE 9.2 mph 19.6 mph N/A   Clear
10:33 AM 53.6 °F - 39.2 °F 58% 30.25 in 10.0 mi NNE 11.5 mph 19.6 mph N/A   Clear
10:52 AM 55.4 °F - 39.2 °F 54% 30.25 in 10.0 mi NE 11.5 mph 17.3 mph N/A   Clear
11:13 AM 55.4 °F - 39.2 °F 54% 30.25 in 10.0 mi NNE 12.7 mph 19.6 mph N/A   Clear
11:33 AM 55.4 °F - 39.2 °F 54% 30.25 in 10.0 mi NE 15.0 mph 21.9 mph N/A   Clear
11:52 AM 55.4 °F - 39.2 °F 54% 30.26 in 10.0 mi NNE 12.7 mph 19.6 mph N/A   Clear
12:13 PM 57.2 °F - 39.2 °F 51% 30.26 in 10.0 mi NNE 11.5 mph 19.6 mph N/A   Clear
12:33 PM 57.2 °F - 41.0 °F 55% 30.26 in 10.0 mi NNE 11.5 mph 18.4 mph N/A   Clear
12:53 PM 59.0 °F - 39.2 °F 48% 30.26 in 10.0 mi NE 16.1 mph 20.7 mph N/A   Clear
1:13 PM 59.0 °F - 39.2 °F 48% 30.26 in 10.0 mi NE 11.5 mph - N/A   Clear
1:33 PM 59.0 °F - 39.2 °F 48% 30.26 in 10.0 mi NE 16.1 mph 21.9 mph N/A   Clear
1:52 PM 59.0 °F - 39.2 °F 48% 30.26 in 10.0 mi NE 10.4 mph 17.3 mph N/A   Clear
2:13 PM 60.8 °F - 37.4 °F 42% 30.26 in 10.0 mi NNE 9.2 mph 18.4 mph N/A   Clear
2:33 PM 60.8 °F - 37.4 °F 42% 30.26 in 10.0 mi NE 15.0 mph 20.7 mph N/A   Clear
2:53 PM 62.6 °F - 37.4 °F 39% 30.26 in 10.0 mi NNE 13.8 mph 18.4 mph N/A   Clear
3:13 PM 60.8 °F - 37.4 °F 42% 30.26 in 10.0 mi NE 10.4 mph 17.3 mph N/A   Clear
3:33 PM 62.6 °F - 37.4 °F 39% 30.26 in 10.0 mi NNE 13.8 mph 20.7 mph N/A   Clear
3:53 PM 62.6 °F - 37.4 °F 39% 30.26 in 10.0 mi NE 9.2 mph 12.7 mph N/A   Clear
4:13 PM 62.6 °F - 37.4 °F 39% 30.26 in 10.0 mi ENE 11.5 mph 18.4 mph N/A   Clear
4:33 PM 62.6 °F - 35.6 °F 37% 30.26 in 10.0 mi ENE 10.4 mph 17.3 mph N/A   Clear
4:53 PM 62.6 °F - 33.8 °F 34% 30.26 in 10.0 mi East 11.5 mph 18.4 mph N/A   Clear
5:12 PM 62.6 °F - 33.8 °F 34% 30.26 in 10.0 mi NE 10.4 mph 17.3 mph N/A   Clear
5:33 PM 64.4 °F - 35.6 °F 34% 30.26 in 10.0 mi ENE 9.2 mph - N/A   Clear
5:53 PM 62.6 °F - 33.8 °F 34% 30.26 in 10.0 mi NE 11.5 mph 19.6 mph N/A   Clear
6:12 PM 62.6 °F - 35.6 °F 37% 30.27 in 10.0 mi ENE 9.2 mph - N/A   Clear
6:33 PM 62.6 °F - 33.8 °F 34% 30.27 in 10.0 mi ENE 8.1 mph - N/A   Clear
6:53 PM 62.6 °F - 33.8 °F 34% 30.27 in 10.0 mi East 6.9 mph - N/A   Clear
7:12 PM 62.6 °F - 33.8 °F 34% 30.27 in 10.0 mi ENE 8.1 mph - N/A   Clear
7:33 PM 62.6 °F - 33.8 °F 34% 30.26 in 10.0 mi NE 8.1 mph - N/A   Clear
7:53 PM 62.6 °F - 33.8 °F 34% 30.27 in 10.0 mi ENE 4.6 mph - N/A   Clear
8:12 PM 60.8 °F - 37.4 °F 42% 30.27 in 10.0 mi NE 4.6 mph - N/A   Clear
8:33 PM 60.8 °F - 33.8 °F 36% 30.27 in 10.0 mi East 5.8 mph - N/A   Clear
8:53 PM 59.0 °F - 33.8 °F 39% 30.27 in 10.0 mi East 3.5 mph - N/A   Clear
9:13 PM 57.2 °F - 33.8 °F 41% 30.28 in 10.0 mi East 3.5 mph - N/A   Clear
9:33 PM 57.2 °F - 33.8 °F 41% 30.28 in 10.0 mi East 3.5 mph - N/A   Clear
9:52 PM 57.2 °F - 33.8 °F 41% 30.29 in 10.0 mi East 3.5 mph - N/A   Clear
10:13 PM 55.4 °F - 35.6 °F 47% 30.30 in 10.0 mi East 3.5 mph - N/A   Clear
10:33 PM 55.4 °F - 35.6 °F 47% 30.30 in 10.0 mi Calm Calm - N/A   Clear
10:52 PM 55.4 °F - 37.4 °F 51% 30.31 in 10.0 mi East 3.5 mph - N/A   Clear
11:13 PM 53.6 °F - 37.4 °F 54% 30.31 in 10.0 mi East 4.6 mph - N/A   Clear
11:33 PM 53.6 °F - 37.4 °F 54% 30.31 in 10.0 mi Calm Calm - N/A   Clear
11:52 PM 53.6 °F - 37.4 °F 54% 30.32 in 10.0 mi Calm Calm - N/A   Clear